{"data":{"norad_id":69034,"epoch":"2026-05-25T03:29:02.222304Z","epoch_age_seconds":56289,"freshness":"FRESH","line1":"1 69034U 26101K   26145.14516461  .00117652  00000+0  77767-3 0  9996","line2":"2 69034  97.2848 359.9017 0001249  78.5721 281.5684 15.75224903  3018","mean_motion":15.75224903,"eccentricity":0.0001249,"inclination_deg":97.2848,"raan_deg":359.9017,"arg_perigee_deg":78.5721,"mean_anomaly_deg":281.5684,"bstar":0.00077767,"rev_number":301,"period_min":91.415517698935,"perigee_km":343.15167612343,"apogee_km":344.83086376526,"semimajor_km":6722.1282699443,"source":"CELESTRAK","updated_at":"2026-05-25T13:38:22.081178Z"}}